Location: Shandelee
(41.8790°N, 74.8713°W)
Time: 12:38:55
(UTC+00:00)

GPS 2-04 Rocket1 - Pass Details

Date: 29 October 2020
Orbit: 417 x 546 km, 35.6° (Epoch: 01 December)

Event Time Altitude Azimuth Distance (km) Brightness Sun altitude
Rises 23:32:54 0° 241° (WSW) 2,620 7.4 -18.4°
Reaches altitude 10° 23:35:17 10° 231° (SW) 1,754 6.1 -18.8°
Maximum altitude 23:38:50 30° 169° (S) 982 4.0 -19.5°
Enters shadow 23:39:24 28° 153° (SSE) 1,013 3.9 -19.6°
